Regional Weather Roundup
Issued by NWS

Home | Current Version | Previous Version | Graphics & Text | Print | Product List | Glossary On
Versions: 1 2 3 4 5 6 7 8 9 10 11 12 13 14 15 16 17 18 19 20 21 22 23 24 25 26 27 28 29 30 31 32 33 34 35 36 37 38 39 40 41 42 43 44 45 46 47 48 49 50
000
ASUS43 KMPX 191501
RWRMN
WEATHER ROUNDUP FOR MINNESOTA
NATIONAL WEATHER SERVICE TWIN CITIES/CHANHASSEN MN
1000 AM CDT THU OCT 19 2017


NOTE: "FAIR" INDICATES FEW OR NO CLOUDS BELOW 12,000 FEET WITH NO
SIGNIFICANT WEATHER AND/OR OBSTRUCTIONS TO VISIBILITY. N/A MEANS
CURRENT SKY AND/OR WEATHER CONDITIONS ARE NOT AVAILABLE.

MNZ060>063-068>070-191600-
   Twin Cities Metro

CITY           SKY/WX    TMP DP  RH WIND       PRES   REMARKS
TWIN CITIES    CLOUDY    51  35  54 SW3       30.08R
ST PAUL        CLOUDY    49  38  65 SE5       30.09R
CRYSTAL        CLOUDY    52  32  46 S5        30.06R
BLAINE         PTSUNNY   54  36  50 S7        30.06R
LAKEVILLE      CLOUDY    52  36  54 S5        30.08S
EDEN PRAIRIE   CLOUDY    49  38  65 S6        30.06S
SOUTH ST PAUL  CLOUDY    50  37  61 CALM      30.08R
LAKE ELMO      FAIR      52  36  54 S8        30.08R
$$
MNZ001>005-007-008-013>017-022>024-027-028-191600-
   Northwest Minnesota

CITY           SKY/WX    TMP DP  RH WIND       PRES   REMARKS
BEMIDJI        SUNNY     47  29  49 S7        29.95R
HALLOCK        CLOUDY    46  27  46 S13       29.84F
ROSEAU         CLOUDY    45  32  61 S8        29.88S
WARROAD        CLOUDY    45  30  57 S5        29.88F
CROOKSTON      CLOUDY    48  30  49 S9        29.88F
FOSSTON        CLOUDY    52  28  40 S7        29.91F
DETROIT LAKES  SUNNY     52  36  54 SE8       29.93F
MOORHEAD       SUNNY     52  32  46 S14       29.89F
PARK RAPIDS    SUNNY     47  33  58 SE7       29.96S
MAHNOMEN       FAIR      51  32  47 SE5       29.91S
$$
MNZ006-009>011-018-025>026-191600-
   North Central Minnesota

CITY           SKY/WX    TMP DP  RH WIND       PRES   REMARKS
BAUDETTE       CLOUDY    44  27  51 S6        29.90F
FLAG ISLAND    CLOUDY    43  25  49 CALM      29.87S
INTL FALLS     CLOUDY    47  23  38 W6        29.92S
WASKISH        CLOUDY    48  28  46 S5        29.93S
BIG FORK       CLOUDY    52  28  40 SW6       29.96R
LONGVILLE      SUNNY     48  30  49 SW7       29.98R
GRAND RAPIDS   SUNNY     48  30  49 S7        30.00R
CRANE LAKE     MOSUNNY   45  21  39 SW6       29.95S
ORR            CLOUDY    46  21  36 CALM      29.93R
COOK           SUNNY     48  25  40 SW7       29.96R
WALKER         FAIR      48  30  51 SW6       29.97R
$$
MNZ012-019>021-037-191600-
   Northeast Minnesota

CITY           SKY/WX    TMP DP  RH WIND       PRES   REMARKS
DULUTH         CLOUDY    51  29  42 W10       30.00R
ELY            MOSUNNY   46  21  36 SW8       29.95R
HIBBING        SUNNY     47  28  47 SW3       29.98R
EVELETH        SUNNY     45  19  34 W6        29.99R
DULUTH HARBOR  MOSUNNY   50  36  57 SW12      30.02R
TWO HARBORS    CLOUDY    54  34  47 SW8       29.97R
GRAND MARAIS     N/A     46  37  71 W10       29.93R
G MARAIS ARPRT CLOUDY    46  18  31 W6        29.91R
$$
MNZ029>031-032-039>041-046>048-054>057-064-191600-
   West Central Minnesota

CITY           SKY/WX    TMP DP  RH WIND       PRES   REMARKS
FERGUS FALLS   SUNNY     52  34  50 S12       29.94F
WHEATON        SUNNY     52  34  50 SE12      29.93F
MORRIS         CLOUDY    50  36  57 S10       29.95F
ALEXANDRIA     SUNNY     56  31  38 S13       29.99S
ELBOW LAKE     FAIR      52  35  52 SE13      29.95F
WADENA         SUNNY     52  34  50 S9        29.96F
GLENWOOD       CLOUDY    54  32  43 S13       30.00S
APPLETON       CLOUDY    54  34  47 S8        29.96F
BENSON         CLOUDY    52  34  50 S12       29.99F
ORTONVILLE     SUNNY     50  36  57 NE8       29.94F
MADISON        CLOUDY    55  37  50 S7        29.96F
WILLMAR        FAIR      54  36  50 S7        30.02F
$$
MNZ033>034-036-042>043-049>051-058-059-191600-
   Central Minnesota

CITY           SKY/WX    TMP DP  RH WIND       PRES   REMARKS
ST CLOUD       CLOUDY    48  38  68 S8        30.04R
SAUK CENTRE    FAIR      49  35  58 S8        30.01S
PAYNESVILLE    CLOUDY    51  32  48 S9        30.03S
AITKIN         SUNNY     48  32  53 S3        29.99S
PINE RIVER     SUNNY     43  34  70 SE3       30.02S
BRAINERD       SUNNY     48  33  56 S6        30.01S
STAPLES        SUNNY     46  32  57 S7        29.98F
LONG PRAIRIE   FAIR      48  34  57 SE3       30.01S
LITTLE FALLS   CLOUDY    46  28  49 S5        30.02R
LITCHFIELD     CLOUDY    54  34  47 CALM      30.04F
BUFFALO        CLOUDY    49  32  51 S6        30.07R
MAPLE LAKE     CLOUDY    50  37  61 S5        30.06R
HUTCHINSON     CLOUDY    50  36  58 S7        30.06F
$$
MNZ037-044-045-052-053-191600-
   East Central Minnesota

CITY           SKY/WX    TMP DP  RH WIND       PRES   REMARKS
PRINCETON      CLOUDY    52  36  54 S5        30.04F
MORA           CLOUDY    45  34  65 S3        30.06R
CAMBRIDGE      CLOUDY    52  36  54 S5        30.06R
RUSH CITY      CLOUDY    47  35  62 CALM      30.06R
MOOSE LAKE     CLOUDY    46  32  57 CALM      30.00S
HINCKLEY       FAIR      46  36  66 SW5       30.05R
CLOQUET        CLOUDY    48  27  43 SW5       30.01R
MCGREGOR       CLOUDY    50  34  53 SW7       30.02R
$$
MNZ071>073-080-081-089-090-097-098-191600-
   Southwest Minnesota

CITY           SKY/WX    TMP DP  RH WIND       PRES   REMARKS
MONTEVIDEO     CLOUDY    54  34  47 SW10      29.99F
GRANITE FALLS  CLOUDY    53  37  53 SE12      30.02F
CANBY          CLOUDY    61  30  31 SW15G25   29.98S
MARSHALL       CLOUDY    56  33  42 S15       30.01S
REDWOOD FALLS  CLOUDY    53  35  50 S13       30.03S
OLIVIA         CLOUDY    50  36  57 SE9       30.02F
PIPESTONE      CLOUDY    54  28  37 S12       30.03F
WORTHINGTON    CLOUDY    55  32  41 S15G21    30.07F
JACKSON        SUNNY     52  32  46 S14       30.09R
TRACY          CLOUDY    57  33  40 S15G22    30.03S
SLAYTON        CLOUDY    56  19  23 S14G20    30.05S
$$
MNZ065>067-074>077-082>085-091>093-191600-
   South Central Minnesota

CITY           SKY/WX    TMP DP  RH WIND       PRES   REMARKS
MANKATO        CLOUDY    49  35  58 SE8       30.09S
NEW ULM          N/A     52  36  54 SE5       30.06S
ST JAMES       CLOUDY    54  34  47 SE13      30.08S
FAIRMONT       CLOUDY    52  34  50 S13       30.10R
GLENCOE        CLOUDY    50  35  55 S6        30.06F
FARIBAULT      CLOUDY    52  37  58 S5        30.09F
OWATONNA       CLOUDY    55  36  47 SE7       30.10S
WASECA         CLOUDY    54  36  50 SE6       30.10S
$$
MNZ078>079-086>088-094>096-191600-
   Southeast Minnesota

CITY           SKY/WX    TMP DP  RH WIND       PRES   REMARKS
ROCHESTER      MOSUNNY   52  36  54 S9        30.13R
RED WING       CLOUDY    52  34  50 SE5       30.09R
STANTON        CLOUDY    53  38  57 S3        30.08S
DODGE CENTER   CLOUDY    55  30  38 S8        30.11S
WINONA         CLOUDY    52  41  66 SE3       30.12F
AUSTIN         CLOUDY    52  36  54 S8        30.12S
PRESTON        CLOUDY    52  37  55 S5        30.14R
$$
ABBREVIATIONS USED IN REMARKS
   TC - TEMPERATURES IN CELSIUS
  WCI - WIND CHILL INDEX
   HX - HEAT INDEX
  VSB - VISIBILITY
$$




USA.gov is the U.S. government's official web portal to all federal, state and local government web resources and services.